Location: Spruce Knob
(38.6995°N, 79.5330°W)
Time: 12:28:11
(UTC-05:00)

Envisat - Pass Details

Date: 05 December 2021
Orbit: 764 x 766 km, 98.2° (Epoch: 23 January)

Event Time Altitude Azimuth Distance (km) Brightness Sun altitude
Rises 04:56:58 0° 17° (NNE) 3,237 6.4 -27.4°
Reaches altitude 10° 04:59:20 10° 22° (NNE) 2,306 5.6 -27.0°
Maximum altitude 05:04:19 55° 100° (E) 915 3.6 -26.0°
Drops below altitude 10° 05:09:16 10° 178° (S) 2,290 5.6 -25.1°
Sets 05:11:36 0° 183° (S) 3,211 6.3 -24.6°
